sat.trackr.live / text

‹ back to catalog

STARLINK-6302

NORAD 56396 · 2023-061Y

PAYLOAD ACTIVE UNKNOWN

§ Identity

Operator
Country
US
Launch date
2023-05-04
Launch site
AFETR
Launch vehicle
Mass (kg)
RCS (m²)

Purposes: comms

External: N2YO · Heavens-Above · Gunter

§ Orbital elements

Epoch: 2026-09-20T10:56:19.653792Z

Period
94.27 min
Inclination
43.0035°
Eccentricity
0.0001161
Mean motion
15.27576089 rev/d
Perigee alt
482.3 km
Apogee alt
483.9 km
Semi-major
6,861.2 km
B*
1.7921e-5
RAAN
166.9291°
Arg perigee
269.8437°
Mean anomaly
90.2282°
Rev number
18,179

§ Raw data

STARLINK-63021 56396U 23061Y   26263.45578303  .00000231  00000+0  17921-4 0  99942 56396  43.0035 166.9291 0001161 269.8437  90.2282 15.27576089181797

JSON: /api/v1/satellites/56396 · /tle

For live sub-satellite position, see the globe view (requires WebGL).

§ Visibility from observer

Set your observer location to see the next 7 days of passes ≥ 10°. The values pass through the URL so the page stays shareable.

No JS? Fill the form by hand. The geolocation button needs JavaScript.